When you browse on this site, cookies collect data to enhance your experience and personalize the content and advertising you see.
Visit our Privacy Policy to learn more. By continuing to use the site, you agree to this use of cookies and data.
  • In Slovakia
  • List of Countries
  • For 7 days
  • Water Temperature
  • Satellite Maps
  • Weather Map
  • Weather Widgets
  • user-avatar
    Login

    Hourly Weather Canillo

    Today, 16 January, Wednesday

    Time Temperature Precipitation Wind Pressure Humidity
    00:00 0°C° 0 mm 1 mps 616 mmHg 37%
    01:00 0°C° 0 mm 1 mps 616 mmHg 34%
    02:00 0°C° 0 mm 1 mps 615 mmHg 31%
    03:00 +1°C° 0 mm 1 mps 615 mmHg 28%
    04:00 +1°C° 0 mm 1 mps 615 mmHg 28%
    05:00 +1°C° 0 mm 1 mps 615 mmHg 28%
    06:00 0°C° 0 mm 1 mps 615 mmHg 29%
    07:00 +2°C° 0 mm 1 mps 615 mmHg 30%
    08:00 +3°C° 0 mm 1 mps 616 mmHg 32%
    09:00 +4°C° 0 mm 1 mps 616 mmHg 33%
    10:00 +5°C° 0 mm 1 mps 617 mmHg 34%
    11:00 +7°C° 0 mm 1 mps 617 mmHg 34%
    12:00 +9°C° 0 mm 1 mps 618 mmHg 34%
    13:00 +8°C° 0 mm 1 mps 617 mmHg 38%
    14:00 +7°C° 0 mm 1 mps 617 mmHg 42%
    15:00 +7°C° 0 mm 1 mps 616 mmHg 46%
    16:00 +4°C° 0 mm 1 mps 615 mmHg 54%
    17:00 +2°C° 0 mm 1 mps 614 mmHg 62%
    18:00 0°C° 0 mm 1 mps 614 mmHg 70%
    19:00 0°C° 0 mm 1 mps 614 mmHg 70%
    20:00 -1°C° 0 mm 1 mps 613 mmHg 69%
    21:00 -2°C° 0 mm 0 mps 613 mmHg 69%
    22:00 -2°C° 0 mm 0 mps 613 mmHg 68%
    23:00 -2°C° 0 mm 0 mps 613 mmHg 68%

    Tomorrow, 17 January, Thursday

    Time Temperature Precipitation Wind Pressure Humidity
    00:00 -3°C° 0 mm 0 mps 613 mmHg 67%
    01:00 -3°C° 0 mm 0 mps 613 mmHg 68%
    02:00 -2°C° 0 mm 1 mps 613 mmHg 68%
    03:00 -2°C° 0 mm 1 mps 612 mmHg 69%
    04:00 -2°C° 0 mm 1 mps 612 mmHg 72%
    05:00 -2°C° 0 mm 1 mps 612 mmHg 75%
    06:00 -2°C° 0 mm 1 mps 612 mmHg 78%
    07:00 -1°C° 0 mm 1 mps 613 mmHg 78%
    08:00 0°C° 0 mm 1 mps 613 mmHg 78%
    09:00 -2°C° 0 mm 2 mps 614 mmHg 78%
    10:00 -1°C° 0.4 mm 2 mps 614 mmHg 78%
    11:00 -1°C° 0.4 mm 2 mps 614 mmHg 78%
    12:00 +1°C° 0.4 mm 2 mps 615 mmHg 78%
    13:00 -1°C° 0.2 mm 2 mps 614 mmHg 79%
    14:00 -1°C° 0.2 mm 2 mps 614 mmHg 80%
    15:00 -2°C° 0.2 mm 2 mps 614 mmHg 80%
    16:00 -3°C° 0.1 mm 2 mps 614 mmHg 83%
    17:00 -4°C° 0.1 mm 2 mps 613 mmHg 86%
    18:00 -3°C° 0.1 mm 1 mps 613 mmHg 89%
    19:00 -5°C° 0 mm 2 mps 613 mmHg 89%
    20:00 -6°C° 0 mm 2 mps 613 mmHg 89%
    21:00 -6°C° 0 mm 2 mps 614 mmHg 88%
    22:00 -6°C° 0 mm 2 mps 614 mmHg 89%
    23:00 -6°C° 0 mm 2 mps 614 mmHg 89%

    Day after tomorrow, 18 January, Friday

    Time Temperature Precipitation Wind Pressure Humidity
    00:00 -6°C° 0 mm 2 mps 614 mmHg 89%
    01:00 -7°C° 0 mm 2 mps 613 mmHg 89%
    02:00 -7°C° 0 mm 2 mps 613 mmHg 90%
    03:00 -7°C° 0 mm 2 mps 613 mmHg 90%
    04:00 -8°C° 0 mm 2 mps 613 mmHg 88%
    05:00 -8°C° 0 mm 2 mps 612 mmHg 86%
    06:00 -8°C° 0 mm 2 mps 612 mmHg 85%
    07:00 -7°C° 0 mm 2 mps 613 mmHg 82%
    08:00 -6°C° 0 mm 2 mps 614 mmHg 79%
    09:00 -3°C° 0 mm 1 mps 614 mmHg 77%
    10:00 -3°C° 0 mm 2 mps 614 mmHg 70%
    11:00 -2°C° 0 mm 2 mps 615 mmHg 64%
    12:00 -1°C° 0 mm 2 mps 615 mmHg 57%
    13:00 -1°C° 0 mm 2 mps 615 mmHg 60%
    14:00 -1°C° 0 mm 2 mps 614 mmHg 62%
    15:00 -2°C° 0 mm 2 mps 614 mmHg 65%
    16:00 -1°C° 0 mm 1 mps 613 mmHg 71%
    17:00 -2°C° 0 mm 1 mps 613 mmHg 78%
    18:00 -4°C° 0 mm 0 mps 613 mmHg 84%
    19:00 -4°C° 0 mm 0 mps 613 mmHg 83%
    20:00 -4°C° 0 mm 0 mps 613 mmHg 81%
    21:00 -4°C° 0 mm 0 mps 613 mmHg 80%
    22:00 -4°C° 0 mm 0 mps 613 mmHg 80%
    23:00 -4°C° 0 mm 0 mps 613 mmHg 80%

    19 January, Saturday

    Time Temperature Precipitation Wind Pressure Humidity
    00:00 -4°C° 0 mm 0 mps 613 mmHg 80%
    01:00 -4°C° 0 mm 0 mps 613 mmHg 81%
    02:00 -5°C° 0 mm 0 mps 612 mmHg 82%
    03:00 -4°C° 0 mm 1 mps 612 mmHg 83%
    04:00 -4°C° 0 mm 1 mps 612 mmHg 81%
    05:00 -4°C° 0 mm 1 mps 611 mmHg 80%
    06:00 -4°C° 0 mm 1 mps 611 mmHg 79%
    07:00 -3°C° 0 mm 1 mps 612 mmHg 74%
    08:00 -2°C° 0 mm 1 mps 612 mmHg 70%
    09:00 -1°C° 0 mm 1 mps 612 mmHg 65%
    10:00 0°C° 0 mm 1 mps 612 mmHg 62%
    11:00 +1°C° 0 mm 2 mps 613 mmHg 58%
    12:00 +2°C° 0 mm 2 mps 613 mmHg 54%
    13:00 +2°C° 0 mm 2 mps 612 mmHg 57%
    14:00 +2°C° 0 mm 2 mps 611 mmHg 59%
    15:00 +2°C° 0 mm 2 mps 611 mmHg 62%
    16:00 -1°C° 0 mm 2 mps 610 mmHg 70%
    17:00 -2°C° 0 mm 2 mps 609 mmHg 78%
    18:00 -2°C° 0 mm 1 mps 609 mmHg 86%
    19:00 -2°C° 0 mm 1 mps 609 mmHg 86%
    20:00 -2°C° 0 mm 1 mps 609 mmHg 86%
    21:00 -1°C° 0 mm 1 mps 609 mmHg 86%
    22:00 -1°C° 0 mm 1 mps 609 mmHg 85%
    23:00 -1°C° 0 mm 1 mps 609 mmHg 84%

    20 January, Sunday

    Time Temperature Precipitation Wind Pressure Humidity
    00:00 -1°C° 0 mm 1 mps 609 mmHg 83%
    01:00 -1°C° 0 mm 1 mps 609 mmHg 85%
    02:00 -1°C° 0 mm 1 mps 609 mmHg 86%
    03:00 -4°C° 0 mm 2 mps 610 mmHg 88%
    04:00 -4°C° 0.2 mm 2 mps 610 mmHg 88%
    05:00 -3°C° 0.2 mm 2 mps 610 mmHg 88%
    06:00 -3°C° 0.2 mm 2 mps 610 mmHg 88%
    07:00 -4°C° 0.2 mm 3 mps 611 mmHg 87%
    08:00 -4°C° 0.2 mm 3 mps 612 mmHg 86%
    09:00 -4°C° 0.2 mm 3 mps 613 mmHg 85%
    10:00 -2°C° 0.1 mm 3 mps 613 mmHg 80%
    11:00 -2°C° 0.1 mm 3 mps 613 mmHg 75%
    12:00 -2°C° 0.1 mm 4 mps 614 mmHg 71%
    13:00 -2°C° 0 mm 3 mps 613 mmHg 70%
    14:00 -2°C° 0 mm 3 mps 613 mmHg 69%
    15:00 -2°C° 0 mm 3 mps 613 mmHg 68%
    16:00 -4°C° 0 mm 3 mps 613 mmHg 74%
    17:00 -5°C° 0 mm 2 mps 613 mmHg 80%
    18:00 -6°C° 0 mm 2 mps 612 mmHg 86%
    19:00 -6°C° 0 mm 2 mps 613 mmHg 84%
    20:00 -6°C° 0 mm 2 mps 613 mmHg 83%
    21:00 -5°C° 0 mm 2 mps 614 mmHg 81%
    22:00 -5°C° 0.1 mm 2 mps 614 mmHg 84%
    23:00 -5°C° 0.1 mm 2 mps 614 mmHg 87%

    21 January, Monday

    Time Temperature Precipitation Wind Pressure Humidity
    00:00 -5°C° 0.1 mm 2 mps 614 mmHg 89%
    01:00 -5°C° 0.2 mm 2 mps 614 mmHg 89%
    02:00 -5°C° 0.2 mm 2 mps 614 mmHg 89%
    03:00 -5°C° 0.2 mm 2 mps 614 mmHg 90%
    04:00 -5°C° 0.1 mm 2 mps 614 mmHg 89%
    05:00 -5°C° 0.1 mm 2 mps 614 mmHg 89%
    06:00 -6°C° 0.1 mm 2 mps 614 mmHg 88%
    07:00 -5°C° 0.3 mm 2 mps 614 mmHg 87%
    08:00 -5°C° 0.3 mm 2 mps 615 mmHg 85%
    09:00 -5°C° 0.3 mm 3 mps 615 mmHg 83%
    10:00 -5°C° 0.2 mm 3 mps 615 mmHg 80%
    11:00 -4°C° 0.2 mm 3 mps 615 mmHg 78%
    12:00 -4°C° 0.2 mm 4 mps 616 mmHg 75%
    13:00 -5°C° 0.1 mm 4 mps 615 mmHg 74%
    14:00 -5°C° 0.1 mm 4 mps 615 mmHg 74%
    15:00 -7°C° 0.1 mm 4 mps 615 mmHg 73%
    16:00 -8°C° 0.1 mm 4 mps 614 mmHg 77%
    17:00 -8°C° 0.1 mm 3 mps 614 mmHg 81%
    18:00 -9°C° 0.1 mm 3 mps 614 mmHg 85%
    19:00 -9°C° 0 mm 3 mps 614 mmHg 85%
    20:00 -9°C° 0 mm 3 mps 614 mmHg 85%
    21:00 -10°C° 0 mm 3 mps 615 mmHg 86%
    22:00 -10°C° 0 mm 3 mps 614 mmHg 85%
    23:00 -10°C° 0 mm 3 mps 614 mmHg 85%
    Show more